Location: Lane
(33.5226°N, 79.8788°W)
Time: 04:46:29
(UTC+00:00)

Transit 2A Rocket - Pass Details

Date: 09 October 2022
Orbit: 589 x 911 km, 66.7° (Epoch: 27 November)

Event Time Altitude Azimuth Distance (km) Brightness Sun altitude
Exits shadow 09:36:20 33° 340° (NNW) 1,005 5.5 -22.3°
Drops below altitude 10° 09:39:10 10° 11° (N) 1,926 7.3 -21.7°
Sets 09:41:32 0° 19° (NNE) 2,846 8.3 -21.2°
